Location: Czekanka
(50.4925°N, 19.2643°E)
Time: 08:24:39
(UTC+00:00)

Cosmos 2263 Rocket - Pass Details

Date: 21 September 2024
Orbit: 821 x 849 km, 71.0° (Epoch: 12 October)

Event Time Altitude Azimuth Distance (km) Brightness Sun altitude
Rises 02:06:56 0° 147° (SSE) 3,369 5.4 -22.2°
Reaches altitude 10° 02:10:51 10° 120° (ESE) 2,449 5.0 -21.7°
Maximum altitude 02:13:08 13° 95° (E) 2,272 5.2 -21.3°
Drops below altitude 10° 02:15:26 10° 71° (ENE) 2,464 5.8 -21.0°
Sets 02:19:23 0° 44° (NE) 3,412 6.7 -20.5°
